Tracking 27419 objects as of 10-Jun-2023
HD Live streaming from Space Station
objects crossing your sky now

COSMOS 2251 DEB

Track COSMOS 2251 DEB now!
10-day predictions


NORAD ID: 36071
Int'l Code: 1993-036AYJ
Perigee: 690.5 km
Apogee: 717.1 km
Inclination: 74.0 °
Period: 98.7 minutes
Semi major axis: 7074 km
RCS: 0.009 m2 (small)
Launch date: June 16, 1993
Source: Commonwealth of Independent States (former USSR) (CIS)
Launch site: PLESETSK MISSILE AND SPACE COMPLEX (PKMTR)

Note: This is SATELLITE DEBRIS
Your satellite tracking list
Your tracking list is empty




NASA's NSSDC Master Catalog

Two Line Element Set (TLE):
1 36071U 93036AYJ 23160.86914419  .00008673  00000-0  18495-2 0  9995
2 36071  74.0315  27.6577 0018776 302.5042  57.4308 14.58925301514159
Source of the keplerian elements: AFSPC